F5INV-13 Weather Reports


time (UTC)temp
C
wind
direction
speed
KPH
gust
KPH
rain 1hr
cm
rain 24hr
cm
rain mn
cm
humidity
%
barometer
mb
20260507155504 21 61 8.0 17.7 0.00 0.00 0.00 47 1006.4
20260507155004 21 23 8.0 17.7 0.00 0.00 0.00 48 1006.4
20260507154504 21 32 4.8 17.7 0.00 0.00 0.00 48 1006.4
20260507154004 21 68 8.0 16.1 0.00 0.00 0.00 48 1006.4
20260507153504 21 54 8.0 19.3 0.00 0.00 0.00 48 1006.4
20260507153322 21 338 6.4 19.3 0.00 0.00 0.00 48 1006.4
20260507153004 21 338 6.4 19.3 0.00 0.00 0.00 48 1006.4
20260507152504 21 349 9.7 17.7 0.00 0.00 0.00 48 1007.4
20260507152004 21 25 8.0 16.1 0.00 0.00 0.00 48 1007.4
20260507151504 21 19 6.4 12.9 0.00 0.00 0.00 48 1007.4
20260507151004 21 15 6.4 12.9 0.00 0.00 0.00 48 1006.4
20260507150504 21 40 4.8 12.9 0.00 0.00 0.00 48 1006.4
20260507150005 21 43 6.4 14.5 0.00 0.00 0.00 48 1006.4
20260507145504 21 67 8.0 17.7 0.00 0.00 0.00 48 1007.4
20260507145004 21 94 6.4 17.7 0.00 0.00 0.00 48 1007.4
20260507144504 21 94 4.8 16.1 0.00 0.00 0.00 48 1007.4
20260507144004 21 42 6.4 16.1 0.00 0.00 0.00 48 1007.4
20260507143504 21 31 8.0 19.3 0.00 0.00 0.00 48 1007.4
20260507143004 21 43 11.3 19.3 0.00 0.00 0.00 48 1007.4
20260507142504 21 43 8.0 20.9 0.00 0.00 0.00 48 1007.4
20260507142004 20 28 6.4 20.9 0.00 0.00 0.00 50 1007.4
20260507141505 20 23 9.7 16.1 0.00 0.00 0.00 50 1007.4
20260507141004 20 19 8.0 16.1 0.00 0.00 0.00 50 1008.4
20260507140504 20 23 8.0 17.7 0.00 0.00 0.00 50 1008.4
20260507140004 20 36 11.3 17.7 0.00 0.00 0.00 50 1008.4
20260507135504 20 36 8.0 17.7 0.00 0.00 0.00 50 1008.4
20260507135004 20 25 6.4 16.1 0.00 0.00 0.00 50 1008.4
20260507134504 20 28 8.0 16.1 0.00 0.00 0.00 50 1008.4
20260507134003 20 40 8.0 16.1 0.00 0.00 0.00 50 1008.4
20260507133504 20 47 6.4 20.9 0.00 0.00 0.00 50 1008.4
20260507133004 20 51 8.0 20.9 0.00 0.00 0.00 50 1008.4
20260507132504 20 39 4.8 12.9 0.00 0.00 0.00 50 1008.4
20260507132004 20 37 3.2 12.9 0.00 0.00 0.00 50 1008.4
20260507131504 20 57 4.8 12.9 0.00 0.00 0.00 50 1008.4
20260507131004 20 47 6.4 14.5 0.00 0.00 0.00 50 1008.4
20260507130503 20 39 11.3 19.3 0.00 0.00 0.00 50 1008.4
20260507130004 20 31 11.3 19.3 0.00 0.00 0.00 50 1008.4
20260507125504 20 13 4.8 17.7 0.00 0.00 0.00 50 1008.4
20260507125004 20 20 4.8 14.5 0.00 0.00 0.00 50 1008.4
20260507124616 20 34 6.4 14.5 0.00 0.00 0.00 50 1008.4
20260507124504 20 34 6.4 14.5 0.00 0.00 0.00 50 1008.4
20260507124004 20 26 3.2 14.5 0.00 0.00 0.00 50 1008.4
20260507123504 20 14 3.2 11.3 0.00 0.00 0.00 50 1008.4
20260507123005 20 38 3.2 11.3 0.00 0.00 0.00 50 1008.4
20260507122503 20 48 6.4 19.3 0.00 0.00 0.00 50 1009.4
20260507122004 20 44 8.0 19.3 0.00 0.00 0.00 50 1009.4
20260507121504 20 9 3.2 16.1 0.00 0.00 0.00 50 1009.4
20260507121005 20 44 4.8 19.3 0.00 0.00 0.00 50 1009.4
20260507120504 20 58 6.4 19.3 0.00 0.00 0.00 50 1009.4
20260507120005 20 40 6.4 12.9 0.00 0.00 0.00 50 1009.4
20260507115504 20 37 8.0 17.7 0.00 0.00 0.00 50 1009.4
20260507115004 20 38 3.2 17.7 0.00 0.00 0.00 50 1009.4
20260507114504 20 13 1.6 16.1 0.00 0.00 0.00 50 1009.4
20260507114004 20 4 6.4 16.1 0.00 0.00 0.00 50 1009.4
20260507113504 20 19 6.4 24.1 0.00 0.00 0.00 50 1009.4
20260507113006 20 31 4.8 24.1 0.00 0.00 0.00 52 1009.4
20260507112504 20 35 8.0 17.7 0.00 0.00 0.00 52 1009.4
20260507112004 19 54 4.8 14.5 0.00 0.00 0.00 51 1009.4
20260507111504 19 72 3.2 11.3 0.00 0.00 0.00 51 1009.4
20260507111004 17 38 4.8 11.3 0.00 0.00 0.00 55 1010.4
20260507110504 17 34 4.8 11.3 0.00 0.00 0.00 55 1010.4
20260507110004 17 55 3.2 12.9 0.00 0.00 0.00 55 1010.4
20260507105504 17 86 3.2 12.9 0.00 0.00 0.00 55 1010.4
20260507105004 17 106 1.6 9.7 0.00 0.00 0.00 55 1010.4
20260507104505 17 144 1.6 9.7 0.00 0.00 0.00 55 1010.4
20260507104004 17 136 1.6 9.7 0.00 0.00 0.00 55 1010.4
20260507103504 17 35 1.6 9.7 0.00 0.00 0.00 55 1010.4
20260507103004 18 38 3.2 9.7 0.00 0.00 0.00 52 1010.4
20260507102504 18 56 3.2 9.7 0.00 0.00 0.00 52 1010.4
20260507102006 18 49 4.8 11.3 0.00 0.00 0.00 52 1010.4
20260507101504 18 60 4.8 11.3 0.00 0.00 0.00 52 1010.4
20260507101004 18 116 3.2 11.3 0.00 0.00 0.00 52 1010.4
20260507100504 19 108 3.2 9.7 0.00 0.00 0.00 49 1010.4
20260507100005 18 40 4.8 12.9 0.00 0.00 0.00 54 1010.4
20260507095504 18 45 3.2 12.9 0.00 0.00 0.00 54 1010.4
20260507095004 18 114 1.6 9.7 0.00 0.00 0.00 54 1010.4
20260507094504 18 112 1.6 9.7 0.00 0.00 0.00 54 1010.4
20260507094004 17 100 0.0 3.2 0.00 0.00 0.00 59 1010.4
20260507093504 17 93 1.6 6.4 0.00 0.00 0.00 59 1010.4
20260507093004 17 108 1.6 9.7 0.00 0.00 0.00 59 1010.4
20260507092504 17 146 1.6 9.7 0.00 0.00 0.00 58 1010.4
20260507092004 17 223 1.6 6.4 0.00 0.00 0.00 61 1010.4
20260507091504 17 220 1.6 6.4 0.00 0.00 0.00 61 1010.4
20260507091004 16 124 1.6 6.4 0.00 0.00 0.00 62 1011.5
20260507090504 17 97 1.6 6.4 0.00 0.00 0.00 60 1011.5
20260507090005 17 45 1.6 4.8 0.00 0.00 0.00 66 1011.5
20260507085503 17 267 1.6 4.8 0.00 0.00 0.00 66 1010.4
20260507085004 17 274 1.6 4.8 0.00 0.00 0.00 66 1010.4
20260507084504 17 347 1.6 4.8 0.00 0.00 0.00 66 1010.4
20260507084004 17 50 1.6 4.8 0.00 0.00 0.00 66 1010.4
20260507083504 17 97 1.6 6.4 0.00 0.00 0.00 66 1010.4
20260507083004 17 86 3.2 6.4 0.00 0.00 0.00 66 1010.4
20260507082504 17 14 1.6 6.4 0.00 0.00 0.00 66 1009.4
20260507082004 17 151 1.6 8.0 0.00 0.00 0.00 66 1009.4
20260507081504 17 140 1.6 8.0 0.00 0.00 0.00 67 1009.4
20260507081004 17 87 1.6 8.0 0.00 0.00 0.00 67 1010.4
20260507080504 17 71 3.2 9.7 0.00 0.00 0.00 69 1010.4
20260507080005 17 336 3.2 9.7 0.00 0.00 0.00 69 1010.4
20260507075504 17 340 1.6 8.0 0.00 0.00 0.00 72 1010.4
20260507075004 17 20 1.6 6.4 0.00 0.00 0.00 72 1010.4
20260507074504 16 32 1.6 8.0 0.00 0.00 0.00 78 1010.4
20260507074004 16 50 1.6 8.0 0.00 0.00 0.00 78 1010.4
20260507073505 12 1 1.6 8.0 0.00 0.00 0.00 93 1010.4
20260507073004 12 303 1.6 6.4 0.00 0.00 0.00 93 1010.4
20260507072503 12 328 1.6 4.8 0.00 0.00 0.00 93 1010.4
20260507072004 12 50 1.6 4.8 0.00 0.00 0.00 93 1010.4
20260507071504 12 106 1.6 4.8 0.00 0.00 0.00 93 1010.4
20260507071004 12 132 0.0 3.2 0.00 0.00 0.00 93 1010.4
20260507070505 12 146 0.0 3.2 0.00 0.00 0.00 93 1010.4
20260507070009 12 193 0.0 4.8 0.00 0.00 0.00 93 1010.4
20260507065504 12 161 0.0 4.8 0.00 0.00 0.00 93 1010.4
20260507065004 8 142 0.0 3.2 0.00 0.00 0.00 91 1010.4
20260507064504 8 125 0.0 3.2 0.00 0.00 0.00 91 1010.4
20260507064004 8 101 0.0 4.8 0.00 0.00 0.00 91 1010.4
20260507063503 8 118 1.6 6.4 0.00 0.00 0.00 91 1010.4
20260507063004 8 118 3.2 6.4 0.00 0.00 0.00 91 1010.4
20260507062505 8 112 3.2 6.4 0.00 0.00 0.00 91 1010.4
20260507062004 8 116 1.6 6.4 0.00 0.00 0.00 91 1010.4
20260507061504 8 136 0.0 4.8 0.00 0.00 0.00 91 1010.4
20260507061004 8 167 0.0 4.8 0.00 0.00 0.00 91 1010.4
20260507060504 8 155 3.2 6.4 0.00 0.00 0.00 91 1010.4
20260507060004 8 155 3.2 6.4 0.00 0.00 0.00 91 1010.4
20260507055504 8 159 0.0 6.4 0.00 0.00 0.00 91 1010.4
20260507055004 8 135 0.0 3.2 0.00 0.00 0.00 91 1010.4
20260507054504 8 135 0.0 3.2 0.00 0.00 0.00 91 1010.4
20260507054005 8 0 0.0 0.0 0.00 0.00 0.00 91 1010.4
20260507053504 8 292 1.6 3.2 0.00 0.00 0.00 91 1010.4
20260507053005 8 270 1.6 9.7 0.00 0.00 0.00 91 1010.4
20260507052504 8 238 0.0 9.7 0.00 0.00 0.00 91 1010.4
20260507052004 8 182 0.0 6.4 0.00 0.00 0.00 91 1010.4
20260507051504 8 182 0.0 6.4 0.00 0.00 0.00 91 1010.4
20260507051004 8 116 0.0 4.8 0.00 0.00 0.00 91 1009.4
20260507050504 8 131 0.0 4.8 0.00 0.00 0.00 91 1009.4
20260507050005 8 158 0.0 4.8 0.00 0.00 0.00 91 1009.4
20260507045504 8 0 0.0 0.0 0.00 0.00 0.00 91 1009.4
20260507045004 8 0 0.0 0.0 0.00 0.00 0.00 91 1009.4
20260507044504 8 0 0.0 0.0 0.00 0.00 0.00 91 1009.4
20260507044004 8 0 0.0 0.0 0.00 0.00 0.00 91 1009.4
20260507043504 8 203 0.0 3.2 0.00 0.00 0.00 91 1009.4
20260507043004 8 190 0.0 4.8 0.00 0.00 0.00 91 1009.4
20260507042504 8 181 0.0 6.4 0.00 0.00 0.00 91 1009.4
20260507042004 8 181 0.0 6.4 0.00 0.00 0.00 91 1009.4
20260507041504 8 0 0.0 0.0 0.00 0.00 0.00 91 1009.4
20260507041004 8 0 0.0 0.0 0.00 0.00 0.00 91 1009.4
20260507040504 8 203 0.0 4.8 0.00 0.00 0.00 91 1009.4
20260507040004 8 203 0.0 4.8 0.00 0.00 0.00 91 1009.4
20260507035504 8 203 0.0 6.4 0.00 0.00 0.00 91 1009.4
20260507035004 8 203 0.0 6.4 0.00 0.00 0.00 91 1009.4
20260507034505 8 0 0.0 0.0 0.00 0.00 0.00 91 1009.4
20260507034004 8 0 0.0 0.0 0.00 0.00 0.00 91 1009.4
20260507033504 8 0 0.0 0.0 0.00 0.00 0.00 91 1009.4
20260507033004 8 0 0.0 0.0 0.00 0.00 0.00 91 1009.4
20260507032504 8 0 0.0 0.0 0.00 0.00 0.00 91 1010.4
20260507032004 8 0 0.0 0.0 0.00 0.00 0.00 91 1010.4
20260507031504 8 0 0.0 0.0 0.00 0.00 0.00 91 1010.4
20260507031004 8 203 0.0 3.2 0.00 0.00 0.00 91 1009.4
20260507030504 8 203 0.0 3.2 0.00 0.00 0.00 91 1009.4
20260507030004 8 181 0.0 6.4 0.00 0.00 0.00 91 1009.4
20260507025504 8 190 0.0 6.4 0.00 0.00 0.00 91 1009.4
20260507025004 8 190 0.0 6.4 0.00 0.00 0.00 91 1009.4
20260507024504 8 0 0.0 0.0 0.00 0.00 0.00 91 1009.4
20260507024004 8 203 0.0 6.4 0.00 0.00 0.00 91 1009.4
20260507023504 8 211 0.0 6.4 0.00 0.00 0.00 91 1009.4
20260507023004 8 248 0.0 3.2 0.00 0.00 0.00 91 1009.4
20260507022504 8 264 1.6 9.7 0.00 0.00 0.00 91 1009.4
20260507022004 8 266 1.6 9.7 0.00 0.00 0.00 91 1009.4
20260507021504 8 292 0.0 4.8 0.00 0.00 0.00 91 1009.4
20260507021004 8 0 0.0 0.0 0.00 0.00 0.00 91 1010.4
20260507020504 8 0 0.0 0.0 0.00 0.00 0.00 91 1010.4
20260507020004 8 0 0.0 0.0 0.00 0.00 0.00 91 1010.4
20260507015504 8 0 0.0 0.0 0.00 0.00 0.00 91 1010.4
20260507015004 8 0 0.0 0.0 0.00 0.00 0.00 91 1010.4
20260507014504 8 0 0.0 0.0 0.00 0.00 0.00 91 1010.4
20260507014004 8 0 0.0 0.0 0.00 0.00 0.00 91 1010.4
20260507013504 8 0 0.0 0.0 0.00 0.00 0.00 91 1010.4
20260507013004 8 0 0.0 0.0 0.00 0.00 0.00 91 1010.4
20260507012504 8 0 0.0 0.0 0.00 0.00 0.00 91 1010.4
20260507012005 8 0 0.0 0.0 0.00 0.00 0.00 91 1010.4
20260507011504 8 0 0.0 0.0 0.00 0.00 0.00 91 1010.4
20260507011004 8 0 0.0 0.0 0.00 0.00 0.00 91 1011.5
20260507010504 8 0 0.0 0.0 0.00 0.00 0.00 91 1011.5
20260507010004 8 0 0.0 0.0 0.00 0.00 0.00 91 1011.5
20260507005504 8 0 0.0 0.0 0.00 0.00 0.00 91 1011.5
20260507005004 8 0 0.0 0.0 0.00 0.00 0.00 91 1011.5
20260507004504 8 0 0.0 0.0 0.00 0.00 0.00 91 1011.5
20260507004004 8 181 0.0 3.2 0.00 0.00 0.00 91 1010.4
20260507003504 8 166 0.0 6.4 0.00 0.00 0.00 91 1010.4
20260507003004 8 164 0.0 6.4 0.00 0.00 0.00 91 1010.4
20260507002504 8 0 0.0 0.0 0.00 0.00 0.00 91 1010.4
20260507002004 8 181 0.0 6.4 0.00 0.00 0.00 91 1010.4
20260507001504 8 181 0.0 6.4 0.00 0.00 0.00 91 1010.4
20260507001004 8 0 0.0 0.0 0.00 0.00 0.00 91 1011.5
20260507000504 8 0 0.0 0.0 0.00 0.00 0.00 91 1011.5
20260507000005 8 0 0.0 0.0 0.00 0.00 0.00 91 1011.5
20260506235504 8 0 0.0 0.0 0.00 0.00 0.00 91 1010.4
20260506235004 11 0 0.0 0.0 0.00 0.00 0.00 82 1010.4
20260506234504 11 0 0.0 0.0 0.00 0.00 0.00 82 1010.4
20260506234005 11 0 0.0 0.0 0.00 0.00 0.00 82 1010.4
20260506233504 11 203 0.0 3.2 0.00 0.00 0.00 82 1010.4
20260506233004 11 203 0.0 3.2 0.00 0.00 0.00 82 1010.4
20260506232504 11 0 0.0 0.0 0.00 0.00 0.00 82 1010.4
20260506232004 11 203 0.0 6.4 0.00 0.00 0.00 82 1010.4
20260506231504 11 203 0.0 6.4 0.00 0.00 0.00 82 1010.4
20260506231004 11 0 0.0 0.0 0.00 0.00 0.00 82 1010.4
20260506230504 11 0 0.0 0.0 0.00 0.00 0.00 82 1010.4
20260506230004 11 0 0.0 0.0 0.00 0.00 0.00 82 1010.4
20260506225504 11 0 0.0 0.0 0.00 0.00 0.00 82 1011.5
20260506225005 11 0 0.0 0.0 0.00 0.00 0.00 82 1011.5
20260506224504 11 0 0.0 0.0 0.00 0.00 0.00 82 1011.5
20260506224004 11 0 0.0 0.0 0.00 0.00 0.00 82 1010.4
20260506223504 11 0 0.0 0.0 0.00 0.00 0.00 82 1010.4
20260506223004 11 0 0.0 0.0 0.00 0.00 0.00 82 1010.4
20260506222504 11 0 0.0 0.0 0.00 0.00 0.00 82 1010.4
20260506222004 11 0 0.0 0.0 0.00 0.00 0.00 82 1010.4
20260506221505 11 0 0.0 0.0 0.00 0.00 0.00 82 1010.4
20260506221004 11 0 0.0 0.0 0.00 0.00 0.00 82 1010.4
20260506220504 11 248 0.0 9.7 0.00 0.00 0.00 82 1010.4
20260506220008 11 276 1.6 9.7 0.00 0.00 0.00 82 1010.4
20260506215504 11 287 0.0 6.4 0.00 0.00 0.00 82 1010.4
20260506215004 11 0 0.0 0.0 0.00 0.00 0.00 82 1010.4
20260506214504 11 0 0.0 0.0 0.00 0.00 0.00 82 1010.4
20260506214004 11 0 0.0 0.0 0.00 0.00 0.00 82 1010.4
20260506213504 11 0 0.0 0.0 0.00 0.00 0.00 82 1010.4
20260506213004 11 0 0.0 0.0 0.00 0.00 0.00 82 1010.4
20260506212504 11 0 0.0 0.0 0.00 0.00 0.00 82 1010.4
20260506212004 11 0 0.0 0.0 0.00 0.00 0.00 82 1010.4
20260506211504 11 0 0.0 0.0 0.00 0.00 0.00 82 1010.4
20260506211004 11 0 0.0 0.0 0.00 0.00 0.00 82 1010.4
20260506210504 11 0 0.0 0.0 0.00 0.00 0.00 82 1010.4
20260506210004 15 0 0.0 0.0 0.00 0.00 0.00 65 1010.4
20260506205504 15 203 0.0 3.2 0.00 0.00 0.00 65 1010.4
20260506205004 15 209 0.0 6.4 0.00 0.00 0.00 65 1010.4
20260506204504 15 255 1.6 9.7 0.00 0.00 0.00 65 1010.4
20260506204005 15 263 1.6 9.7 0.00 0.00 0.00 65 1009.4
20260506203504 15 244 0.0 8.0 0.00 0.00 0.00 65 1009.4
20260506203004 15 237 1.6 8.0 0.00 0.00 0.00 65 1009.4
20260506202504 15 249 1.6 8.0 0.00 0.00 0.00 65 1009.4
20260506202004 15 259 1.6 9.7 0.00 0.00 0.00 65 1009.4
20260506201504 15 266 3.2 9.7 0.00 0.00 0.00 65 1009.4
20260506201004 15 269 4.8 16.1 0.00 0.00 0.00 65 1009.4
20260506200504 15 281 6.4 16.1 0.00 0.00 0.00 65 1009.4
20260506200005 15 274 8.0 12.9 0.00 0.00 0.00 65 1009.4
20260506195504 15 262 8.0 17.7 0.00 0.00 0.00 65 1009.4
20260506195004 15 256 6.4 17.7 0.00 0.00 0.00 65 1009.4
20260506194504 15 250 3.2 14.5 0.00 0.00 0.00 65 1009.4
20260506194004 15 245 4.8 12.9 0.00 0.00 0.00 65 1009.4
20260506193504 15 250 4.8 12.9 0.00 0.00 0.00 65 1009.4
20260506193004 15 243 3.2 12.9 0.00 0.00 0.00 65 1009.4
20260506192504 15 249 6.4 16.1 0.00 0.00 0.00 65 1008.4
20260506192004 15 252 8.0 16.1 0.00 0.00 0.00 65 1008.4
20260506191504 15 241 6.4 19.3 0.00 0.00 0.00 65 1008.4
20260506191004 15 241 6.4 19.3 0.00 0.00 0.00 65 1007.4
20260506190504 15 245 6.4 16.1 0.00 0.00 0.00 65 1007.4
20260506190005 15 242 8.0 16.1 0.00 0.00 0.00 65 1007.4
20260506185504 15 243 8.0 14.5 0.00 0.00 0.00 65 1008.4
20260506185004 15 240 6.4 14.5 0.00 0.00 0.00 65 1008.4
20260506184504 15 251 6.4 19.3 0.00 0.00 0.00 65 1008.4
20260506184005 15 250 9.7 19.3 0.00 0.00 0.00 65 1008.4
20260506183504 15 246 11.3 19.3 0.00 0.00 0.00 65 1008.4
20260506183005 15 254 11.3 19.3 0.00 0.00 0.00 65 1008.4
20260506182504 15 256 14.5 32.2 0.00 0.00 0.00 65 1008.4
20260506182004 15 245 16.1 40.2 0.00 0.00 0.00 65 1008.4
20260506181505 15 234 11.3 40.2 0.00 0.00 0.00 65 1008.4
20260506181004 15 240 9.7 17.7 0.00 0.00 0.00 65 1008.4
20260506180504 15 254 11.3 22.5 0.00 0.00 0.00 65 1008.4
20260506180005 15 253 12.9 22.5 0.00 0.00 0.00 65 1008.4
20260506175504 15 247 11.3 24.1 0.00 0.00 0.00 65 1008.4
20260506175005 15 247 14.5 25.7 0.00 0.00 0.00 65 1008.4
20260506174504 15 241 16.1 29.0 0.00 0.00 0.00 65 1008.4
20260506174004 15 241 14.5 29.0 0.00 0.00 0.00 65 1008.4
20260506173504 15 239 14.5 25.7 0.00 0.00 0.00 65 1008.4
20260506173004 15 243 16.1 29.0 0.00 0.00 0.00 65 1008.4
20260506172504 15 247 17.7 35.4 0.00 0.00 0.00 66 1007.4
20260506172004 15 247 17.7 35.4 0.00 0.00 0.00 66 1007.4
20260506171504 16 248 19.3 33.8 0.00 0.00 0.00 67 1007.4
20260506171004 16 245 19.3 33.8 0.00 0.00 0.00 67 1007.4
20260506170504 16 251 17.7 30.6 0.00 0.00 0.00 67 1007.4
20260506170004 16 266 17.7 29.0 0.00 0.00 0.00 68 1007.4
20260506165504 16 268 19.3 32.2 0.00 0.00 0.00 65 1007.4
20260506165005 16 261 20.9 35.4 0.00 0.00 0.00 65 1007.4
20260506164504 16 252 19.3 35.4 0.00 0.00 0.00 65 1007.4
20260506164004 16 255 17.7 30.6 0.00 0.00 0.00 65 1006.4
20260506163504 16 260 19.3 33.8 0.00 0.00 0.00 65 1006.4
20260506163004 16 265 20.9 33.8 0.00 0.00 0.00 65 1006.4
20260506162504 16 268 20.9 33.8 0.00 0.00 0.00 65 1006.4
20260506162005 16 264 22.5 33.8 0.00 0.00 0.00 65 1006.4
20260506161504 17 264 22.5 45.1 0.00 0.00 0.00 60 1006.4
20260506161005 17 262 25.7 45.1 0.00 0.00 0.00 60 1006.4
20260506160504 17 263 25.7 43.5 0.00 0.00 0.00 60 1006.4
20260506160004 17 267 20.9 37.0 0.00 0.00 0.00 60 1006.4